LCGO2: Spring Creek Locust Grove, OK

Data processed at Thu Apr 19 2018 23:54


All information presented herein is the property of the government of the United States of America and may be revised or deleted at any time without prior notice.
Dissemination of this information without the expressed written consent of the Public Affairs Office, Tulsa District U.S. Army Corps of Engineers is strictly prohibited.
These data are gathered electronically and, as presented, have not undergone any form of quality control. These data are not guaranteed to be valid or correct.
Go to home page.
Go to station list.


Previous Day
Next Day
Current Day


    
SHEF ID:       LCGO2     Spring Creek at Locust Grove
STATION TYPE:  

               PRECIP     STAGE  RIV-FLOW   VOLTAGE  BAT-LOAD
                   in        ft       cfs      volt      volt
              Ccp-Rev   Ccp-Rev   Ccp-Rev   Ccp-Rev   Ccp-Rev
(US/Central)
04/17 00:00      0.00      ----      ----     12.73     12.65
04/17 01:00      0.00      ----      ----     12.73     12.65
04/17 02:00      0.00      ----      ----     12.65     12.65
04/17 03:00      0.00      ----      ----     12.65     12.57
04/17 04:00      0.00      ----      ----     12.65     12.57
04/17 05:00      0.00      ----      ----     12.65     12.57
04/17 06:00      0.00      ----      ----     12.65     12.57
04/17 07:00      0.00     12.74       112     12.65     12.57
04/17 08:00      0.00     12.75       113     13.29     13.05
04/17 09:00      0.00     12.74       112     13.76     13.29
04/17 10:00      0.00     12.73       111     13.92     13.44
04/17 11:00      0.00     12.73       111     13.37     13.44
04/17 12:00      0.00     12.73       111     13.84     14.08
04/17 13:00      0.00     12.73       111     14.00     13.92
04/17 14:00      0.00     12.73       111     13.76     13.29
04/17 15:00      0.00     12.72       110     13.37     13.76
04/17 16:00      0.00     12.71       109     13.44     12.97
04/17 17:00      0.00     12.67       105     13.60     12.97
04/17 18:00      0.00     12.73       111     13.44     12.97
04/17 19:00      0.00     12.72       110     13.13     12.97
04/17 20:00      0.00     12.72       110     12.89     12.89
04/17 21:00      0.00     12.72       110     12.81     12.73
04/17 22:00      0.00     12.72       110     12.73     12.65
04/17 23:00      0.00     12.72       110     12.73     12.65